Date String (YYYY-MM-DD hh:mm:ss) UTC,Instrument flags,Ambient pressure (hPa),Sample flow (lpm),Bypass flow (lpm),Sample temperature (°C),Ambient temperature (°C),ASC tube jacket temperature (°C),LED temperature (°C),Box temperature (°C),Sample RH (%),Span deviation,Mass concentration (μg/m³),Mass concentration (μg/m³),Mass concentration (μg/m³)
DateTimeUTC,F1_M11,P_M11,Q1_M11,Q2_M11,T1_M11,T2_M11,T3_M11,T4_M11,T5_M11,U1_M11,ZSPAN_M11,X0_M11,X2_M11,X1_M11
2022-01-31 00:00:00,,0823.3,4.99,0.00,29.1,28.3,00.0,38.0,30.8,05.6,0000.0,0011.00,0005.98,0005.67
2022-01-31 00:01:00,,0823.4,5.01,0.00,29.1,28.3,00.0,38.0,30.8,05.4,0000.0,0010.66,0005.98,0005.67
2022-01-31 00:02:00,,0823.3,5.00,0.00,29.0,28.3,00.0,38.0,30.8,05.6,0000.0,0010.72,0005.99,0005.66
2022-01-31 00:03:00,,0823.3,4.99,0.00,29.0,28.3,00.0,38.0,30.8,05.7,0000.0,0010.57,0005.96,0005.63
2022-01-31 00:04:00,,0823.3,5.02,0.00,29.0,28.3,00.0,38.0,30.7,05.8,0000.0,0010.48,0005.92,0005.59
2022-01-31 00:05:00,,0823.4,4.99,0.00,29.0,28.2,00.0,38.0,30.7,05.7,0000.0,0010.40,0005.87,0005.57
2022-01-31 00:06:00,,0823.4,5.01,0.00,29.0,28.2,00.0,38.0,30.7,05.7,0000.0,0010.38,0005.87,0005.56
2022-01-31 00:07:00,,0823.3,4.98,0.00,29.0,28.2,00.0,38.0,30.7,05.6,0000.0,0010.32,0005.88,0005.57
2022-01-31 00:08:00,,0823.4,5.02,0.00,29.0,28.2,00.0,38.0,30.7,05.5,0000.0,0009.90,0005.86,0005.57
2022-01-31 00:09:00,,0823.4,4.99,0.00,29.0,28.2,00.0,38.0,30.7,05.5,0000.0,0009.72,0005.83,0005.55
2022-01-31 00:10:00,,0823.3,5.02,0.00,29.0,28.2,00.0,38.0,30.7,05.4,0000.0,0009.50,0005.81,0005.55
2022-01-31 00:11:00,,0823.3,4.99,0.00,28.9,28.2,00.0,38.0,30.7,05.3,0000.0,0009.01,0005.82,0005.55
2022-01-31 00:12:00,,0823.4,5.01,0.00,28.9,28.2,00.0,37.9,30.6,05.3,0000.0,0009.03,0005.81,0005.55
2022-01-31 00:13:00,,0823.4,5.01,0.00,28.9,28.1,00.0,37.9,30.6,05.4,0000.0,0008.97,0005.81,0005.54
2022-01-31 00:14:00,,0823.3,4.98,0.00,28.9,28.1,00.0,37.9,30.6,05.5,0000.0,0009.53,0005.84,0005.55
2022-01-31 00:15:00,,0823.3,5.00,0.00,28.9,28.1,00.0,37.9,30.6,05.7,0000.0,0009.79,0005.84,0005.56
2022-01-31 00:16:00,,0823.3,5.01,0.00,28.9,28.1,00.0,37.9,30.6,06.1,0000.0,0009.87,0005.85,0005.56
2022-01-31 00:17:00,,0823.3,4.98,0.00,28.9,28.1,00.0,37.9,30.6,06.2,0000.0,0009.80,0005.81,0005.54
2022-01-31 00:18:00,,0823.4,5.02,0.00,28.9,28.1,00.0,37.9,30.5,06.2,0000.0,0009.78,0005.81,0005.53
2022-01-31 00:19:00,,0823.4,4.99,0.00,28.8,28.0,00.0,37.9,30.5,06.2,0000.0,0009.82,0005.81,0005.52
2022-01-31 00:20:00,,0823.4,5.01,0.00,28.8,28.0,00.0,37.9,30.5,06.1,0000.0,0010.19,0005.83,0005.51
2022-01-31 00:21:00,,0823.4,4.99,0.00,28.8,28.0,00.0,37.9,30.5,06.1,0000.0,0010.29,0005.86,0005.52
2022-01-31 00:22:00,,0823.4,5.01,0.00,28.8,28.0,00.0,37.9,30.5,06.2,0000.0,0010.26,0005.86,0005.52
2022-01-31 00:23:00,,0823.4,4.99,0.00,28.8,28.0,00.0,37.8,30.4,06.0,0000.0,0010.22,0005.86,0005.52
2022-01-31 00:24:00,,0823.4,5.01,0.00,28.7,28.0,00.0,37.8,30.4,06.0,0000.0,0010.63,0005.84,0005.51
2022-01-31 00:25:00,,0823.4,4.98,0.00,28.7,28.0,00.0,37.8,30.4,06.0,0000.0,0010.09,0005.79,0005.50
2022-01-31 00:26:00,,0823.4,5.01,0.00,28.7,28.0,00.0,37.8,30.4,06.1,0000.0,0009.88,0005.77,0005.50
2022-01-31 00:27:00,,0823.3,4.99,0.00,28.7,27.9,00.0,37.8,30.4,06.1,0000.0,0009.79,0005.77,0005.50
2022-01-31 00:28:00,,0823.3,5.00,0.00,28.7,27.9,00.0,37.8,30.4,06.1,0000.0,0009.93,0005.85,0005.54
2022-01-31 00:29:00,,0823.4,4.99,0.00,28.7,27.9,00.0,37.8,30.4,06.1,0000.0,0009.95,0005.89,0005.57
2022-01-31 00:30:00,,0823.3,5.00,0.00,28.7,27.9,00.0,37.8,30.4,06.1,0000.0,0010.00,0005.90,0005.60
2022-01-31 00:31:00,,0823.3,5.01,0.00,28.7,27.9,00.0,37.7,30.4,06.0,0000.0,0009.80,0005.92,0005.64
2022-01-31 00:32:00,,0823.3,5.01,0.00,28.7,27.9,00.0,37.7,30.4,06.2,0000.0,0009.74,0005.92,0005.67
2022-01-31 00:33:00,,0823.3,4.98,0.00,28.7,27.9,00.0,37.7,30.3,06.1,0000.0,0009.82,0005.95,0005.69
2022-01-31 00:34:00,,0823.3,5.00,0.00,28.6,27.9,00.0,37.7,30.3,06.3,0000.0,0009.88,0005.96,0005.71
2022-01-31 00:35:00,,0823.3,5.00,0.00,28.6,27.9,00.0,37.7,30.3,06.2,0000.0,0009.63,0005.98,0005.71
2022-01-31 00:36:00,,0823.4,4.98,0.00,28.6,27.9,00.0,37.7,30.3,06.2,0000.0,0009.47,0005.93,0005.66
2022-01-31 00:37:00,,0823.3,5.01,0.00,28.6,27.8,00.0,37.7,30.3,05.9,0000.0,0009.34,0005.84,0005.57
2022-01-31 00:38:00,,0823.3,4.98,0.00,28.6,27.8,00.0,37.7,30.3,05.8,0000.0,0009.14,0005.67,0005.41
2022-01-31 00:39:00,,0823.3,5.01,0.00,28.6,27.8,00.0,37.7,30.3,05.9,0000.0,0008.99,0005.51,0005.25
2022-01-31 00:40:00,,0823.4,5.01,0.00,28.6,27.8,00.0,37.6,30.3,06.0,0000.0,0008.82,0005.36,0005.12
2022-01-31 00:41:00,,0823.4,5.00,0.00,28.6,27.8,00.0,37.6,30.3,06.2,0000.0,0008.61,0005.26,0005.02
2022-01-31 00:42:00,,0823.4,4.99,0.00,28.6,27.8,00.0,37.6,30.3,06.2,0000.0,0008.37,0005.16,0004.92
2022-01-31 00:43:00,,0823.4,5.01,0.00,28.5,27.8,00.0,37.6,30.2,06.1,0000.0,0008.29,0005.08,0004.82
2022-01-31 00:44:00,,0823.4,4.98,0.00,28.5,27.8,00.0,37.6,30.2,06.1,0000.0,0008.17,0004.99,0004.73
2022-01-31 00:45:00,,0823.4,5.01,0.00,28.5,27.7,00.0,37.6,30.2,06.2,0000.0,0009.23,0004.96,0004.67
2022-01-31 00:46:00,,0823.4,4.98,0.00,28.5,27.7,00.0,37.6,30.2,06.2,0000.0,0009.16,0004.92,0004.67
2022-01-31 00:47:00,,0823.4,5.01,0.00,28.5,27.7,00.0,37.6,30.2,05.9,0000.0,0009.21,0004.94,0004.67
2022-01-31 00:48:00,,0823.4,4.99,0.00,28.5,27.7,00.0,37.5,30.2,05.4,0000.0,0009.13,0004.88,0004.61
2022-01-31 00:49:00,,0823.4,5.02,0.00,28.5,27.7,00.0,37.5,30.2,05.3,0000.0,0009.09,0004.86,0004.59
2022-01-31 00:50:00,,0823.5,4.98,0.00,28.5,27.7,00.0,37.5,30.1,05.5,0000.0,0008.98,0004.82,0004.55
2022-01-31 00:51:00,,0823.5,5.01,0.00,28.4,27.7,00.0,37.5,30.1,05.4,0000.0,0008.94,0004.79,0004.51
2022-01-31 00:52:00,,0823.5,4.99,0.00,28.4,27.7,00.0,37.5,30.1,05.0,0000.0,0008.77,0004.65,0004.38
2022-01-31 00:53:00,,0823.5,5.02,0.00,28.4,27.6,00.0,37.5,30.1,04.9,0000.0,0008.58,0004.48,0004.22
2022-01-31 00:54:00,,0823.6,4.99,0.00,28.4,27.6,00.0,37.5,30.1,04.7,0000.0,0008.33,0004.28,0004.04
2022-01-31 00:55:00,,0823.6,5.01,0.00,28.4,27.6,00.0,37.5,30.1,04.7,0000.0,0008.06,0004.08,0003.85
2022-01-31 00:56:00,,0823.6,4.99,0.00,28.4,27.6,00.0,37.5,30.1,04.7,0000.0,0006.40,0003.85,0003.65
2022-01-31 00:57:00,,0823.6,5.01,0.00,28.3,27.5,00.0,37.4,30.0,04.8,0000.0,0005.28,0003.59,0003.42
2022-01-31 00:58:00,,0823.6,5.00,0.00,28.3,27.5,00.0,37.4,30.0,04.9,0000.0,0004.73,0003.38,0003.23
2022-01-31 00:59:00,,0823.7,5.00,0.00,28.3,27.5,00.0,37.4,30.0,04.9,0000.0,0004.76,0003.27,0003.13
